• In Hungary
  • List of Countries
  • For 7 days
  • Water Temperature
  • Satellite Maps
  • Weather Map
  • News
  • Weather Widgets
  • user-avatar
    Login

    Hourly Weather Solden

    Today, 25 September, Monday

    Time Temperature Precipitation Wind Pressure Humidity
    00:00 0°C° 0 mm 1 mps 583 mmHg 86%
    01:00 0°C° 0 mm 1 mps 583 mmHg 87%
    02:00 0°C° 0 mm 1 mps 582 mmHg 86%
    03:00 0°C° 0 mm 1 mps 582 mmHg 86%
    04:00 -1°C° 0 mm 1 mps 582 mmHg 86%
    05:00 -1°C° 0 mm 1 mps 582 mmHg 84%
    06:00 0°C° 0 mm 1 mps 582 mmHg 82%
    07:00 +1°C° 0 mm 1 mps 583 mmHg 78%
    08:00 +3°C° 0 mm 1 mps 584 mmHg 71%
    09:00 +5°C° 0 mm 1 mps 585 mmHg 63%
    10:00 +6°C° 0 mm 0 mps 585 mmHg 55%
    11:00 +7°C° 0 mm 0 mps 586 mmHg 54%
    12:00 +8°C° 0 mm 1 mps 586 mmHg 53%
    13:00 +9°C° 0 mm 1 mps 586 mmHg 51%
    14:00 +8°C° 0.1 mm 1 mps 586 mmHg 55%
    15:00 +8°C° 0.1 mm 1 mps 585 mmHg 58%
    16:00 +8°C° 0.1 mm 1 mps 585 mmHg 62%
    17:00 +6°C° 0.1 mm 1 mps 584 mmHg 71%
    18:00 +4°C° 0.1 mm 1 mps 583 mmHg 80%
    19:00 +2°C° 0.1 mm 1 mps 583 mmHg 89%
    20:00 +1°C° 0 mm 1 mps 583 mmHg 90%
    21:00 +1°C° 0 mm 1 mps 583 mmHg 91%
    22:00 +1°C° 0 mm 1 mps 583 mmHg 92%
    23:00 +1°C° 0 mm 1 mps 583 mmHg 93%

    Tomorrow, 26 September, Tuesday

    Time Temperature Precipitation Wind Pressure Humidity
    00:00 +1°C° 0 mm 1 mps 583 mmHg 93%
    01:00 +1°C° 0 mm 1 mps 583 mmHg 94%
    02:00 +1°C° 0 mm 1 mps 583 mmHg 94%
    03:00 0°C° 0 mm 1 mps 583 mmHg 94%
    04:00 0°C° 0 mm 1 mps 583 mmHg 94%
    05:00 0°C° 0 mm 1 mps 583 mmHg 93%
    06:00 +1°C° 0 mm 1 mps 583 mmHg 92%
    07:00 +1°C° 0 mm 1 mps 583 mmHg 91%
    08:00 +3°C° 0 mm 1 mps 585 mmHg 81%
    09:00 +5°C° 0 mm 1 mps 586 mmHg 72%
    10:00 +8°C° 0 mm 1 mps 587 mmHg 63%
    11:00 +8°C° 0 mm 1 mps 587 mmHg 60%
    12:00 +9°C° 0 mm 1 mps 587 mmHg 58%
    13:00 +9°C° 0 mm 1 mps 587 mmHg 56%
    14:00 +9°C° 0.1 mm 1 mps 587 mmHg 58%
    15:00 +9°C° 0.1 mm 1 mps 587 mmHg 61%
    16:00 +8°C° 0.1 mm 1 mps 587 mmHg 63%
    17:00 +6°C° 0 mm 1 mps 586 mmHg 71%
    18:00 +4°C° 0 mm 1 mps 586 mmHg 79%
    19:00 +2°C° 0 mm 0 mps 585 mmHg 87%
    20:00 +2°C° 0 mm 1 mps 585 mmHg 88%
    21:00 +2°C° 0 mm 1 mps 585 mmHg 89%
    22:00 +2°C° 0 mm 1 mps 585 mmHg 89%
    23:00 +2°C° 0 mm 1 mps 585 mmHg 89%

    Day after tomorrow, 27 September, Wednesday

    Time Temperature Precipitation Wind Pressure Humidity
    00:00 +2°C° 0 mm 1 mps 585 mmHg 90%
    01:00 +2°C° 0 mm 1 mps 585 mmHg 90%
    02:00 +2°C° 0 mm 1 mps 585 mmHg 90%
    03:00 +1°C° 0 mm 1 mps 585 mmHg 90%
    04:00 +1°C° 0 mm 1 mps 585 mmHg 90%
    05:00 +2°C° 0 mm 1 mps 585 mmHg 89%
    06:00 +2°C° 0 mm 1 mps 585 mmHg 88%
    07:00 +2°C° 0 mm 1 mps 586 mmHg 86%
    08:00 +4°C° 0 mm 1 mps 587 mmHg 78%
    09:00 +6°C° 0 mm 1 mps 588 mmHg 70%
    10:00 +8°C° 0 mm 1 mps 589 mmHg 62%
    11:00 +9°C° 0.1 mm 1 mps 589 mmHg 61%
    12:00 +10°C° 0.1 mm 1 mps 589 mmHg 59%
    13:00 +10°C° 0.1 mm 1 mps 589 mmHg 57%
    14:00 +10°C° 0.1 mm 1 mps 589 mmHg 60%
    15:00 +10°C° 0.1 mm 1 mps 589 mmHg 62%
    16:00 +9°C° 0.1 mm 1 mps 588 mmHg 64%
    17:00 +7°C° 0.1 mm 1 mps 588 mmHg 73%
    18:00 +5°C° 0.1 mm 1 mps 587 mmHg 81%
    19:00 +3°C° 0.1 mm 1 mps 586 mmHg 89%
    20:00 +3°C° 0 mm 1 mps 586 mmHg 90%
    21:00 +3°C° 0 mm 1 mps 587 mmHg 91%
    22:00 +3°C° 0 mm 1 mps 587 mmHg 92%
    23:00 +2°C° 0 mm 1 mps 587 mmHg 92%

    28 September, Thursday

    Time Temperature Precipitation Wind Pressure Humidity
    00:00 +2°C° 0 mm 1 mps 587 mmHg 92%
    01:00 +2°C° 0 mm 1 mps 587 mmHg 93%
    02:00 +2°C° 0 mm 1 mps 586 mmHg 92%
    03:00 +2°C° 0 mm 1 mps 586 mmHg 92%
    04:00 +1°C° 0 mm 1 mps 586 mmHg 92%
    05:00 +2°C° 0 mm 1 mps 586 mmHg 91%
    06:00 +2°C° 0 mm 1 mps 586 mmHg 89%
    07:00 +2°C° 0 mm 1 mps 587 mmHg 88%
    08:00 +5°C° 0 mm 1 mps 588 mmHg 78%
    09:00 +7°C° 0 mm 1 mps 589 mmHg 68%
    10:00 +10°C° 0 mm 1 mps 590 mmHg 59%
    11:00 +10°C° 0 mm 1 mps 590 mmHg 56%
    12:00 +11°C° 0 mm 1 mps 591 mmHg 53%
    13:00 +12°C° 0 mm 1 mps 591 mmHg 51%
    14:00 +11°C° 0.1 mm 1 mps 590 mmHg 54%
    15:00 +11°C° 0.1 mm 1 mps 590 mmHg 58%
    16:00 +10°C° 0.1 mm 1 mps 590 mmHg 61%
    17:00 +8°C° 0.1 mm 1 mps 589 mmHg 70%
    18:00 +6°C° 0.1 mm 1 mps 588 mmHg 79%
    19:00 +4°C° 0.1 mm 1 mps 587 mmHg 89%
    20:00 +3°C° 0.2 mm 0 mps 587 mmHg 90%
    21:00 +3°C° 0.2 mm 0 mps 587 mmHg 91%
    22:00 +3°C° 0.2 mm 0 mps 587 mmHg 93%
    23:00 +3°C° 0.3 mm 0 mps 587 mmHg 93%

    29 September, Friday

    Time Temperature Precipitation Wind Pressure Humidity
    00:00 +2°C° 0.3 mm 0 mps 587 mmHg 93%
    01:00 +2°C° 0.3 mm 0 mps 587 mmHg 93%
    02:00 +2°C° 0.2 mm 0 mps 587 mmHg 93%
    03:00 +3°C° 0.2 mm 1 mps 586 mmHg 93%
    04:00 +2°C° 0.2 mm 1 mps 586 mmHg 94%
    05:00 +2°C° 0.1 mm 1 mps 586 mmHg 93%
    06:00 +3°C° 0.1 mm 1 mps 586 mmHg 92%
    07:00 +3°C° 0.1 mm 1 mps 586 mmHg 91%
    08:00 +5°C° 0 mm 1 mps 587 mmHg 81%
    09:00 +7°C° 0 mm 1 mps 588 mmHg 71%
    10:00 +10°C° 0 mm 1 mps 589 mmHg 61%
    11:00 +10°C° 0 mm 1 mps 589 mmHg 58%
    12:00 +11°C° 0 mm 1 mps 589 mmHg 55%
    13:00 +11°C° 0 mm 1 mps 590 mmHg 52%
    14:00 +11°C° 0 mm 1 mps 589 mmHg 54%
    15:00 +11°C° 0 mm 1 mps 589 mmHg 56%
    16:00 +10°C° 0 mm 1 mps 588 mmHg 58%
    17:00 +8°C° 0 mm 1 mps 587 mmHg 68%
    18:00 +6°C° 0 mm 1 mps 586 mmHg 77%
    19:00 +3°C° 0 mm 1 mps 585 mmHg 87%
    20:00 +3°C° 0 mm 1 mps 585 mmHg 88%
    21:00 +2°C° 0 mm 0 mps 585 mmHg 90%
    22:00 +1°C° 0 mm 0 mps 585 mmHg 92%
    23:00 +1°C° 0 mm 0 mps 585 mmHg 92%

    30 September, Saturday

    Time Temperature Precipitation Wind Pressure Humidity
    00:00 +1°C° 0 mm 0 mps 585 mmHg 92%
    01:00 +1°C° 0 mm 0 mps 584 mmHg 92%
    02:00 +2°C° 0 mm 1 mps 584 mmHg 92%
    03:00 +2°C° 0 mm 1 mps 584 mmHg 92%
    04:00 +2°C° 0 mm 1 mps 584 mmHg 92%
    05:00 +2°C° 0 mm 1 mps 584 mmHg 91%
    06:00 +2°C° 0 mm 1 mps 584 mmHg 90%
    07:00 +2°C° 0 mm 1 mps 584 mmHg 89%
    08:00 +5°C° 0 mm 1 mps 585 mmHg 79%
    09:00 +7°C° 0 mm 1 mps 586 mmHg 68%
    10:00 +10°C° 0 mm 1 mps 587 mmHg 58%
    11:00 +10°C° 0 mm 1 mps 587 mmHg 56%
    12:00 +11°C° 0 mm 1 mps 587 mmHg 54%
    13:00 +10°C° 0 mm 2 mps 587 mmHg 52%
    14:00 +10°C° 0.1 mm 2 mps 586 mmHg 56%
    15:00 +9°C° 0.1 mm 2 mps 586 mmHg 60%
    16:00 +8°C° 0.1 mm 2 mps 585 mmHg 64%
    17:00 +8°C° 0.1 mm 1 mps 584 mmHg 73%
    18:00 +6°C° 0.1 mm 1 mps 584 mmHg 82%
    19:00 +4°C° 0.1 mm 1 mps 583 mmHg 91%
    20:00 +4°C° 0.1 mm 1 mps 583 mmHg 93%
    21:00 +3°C° 0.1 mm 0 mps 583 mmHg 94%
    22:00 +2°C° 0.1 mm 0 mps 582 mmHg 96%
    23:00 +2°C° 0 mm 0 mps 582 mmHg 95%
    Show more